Weather observations for the past three days for
China Lake, Naval Air Facility
Imperial (Metric)
Date Time (pdt) Wind (mph) Vis. (mi.) Weather Sky Cond. Temperature (ºF) Relative Humidity Wind Chill (°F) Heat Index (°F) Pressure Precipitation (in)
Air Dwpt 6 hour altimeter (in) sea level (mb) 1 hr 3 hr 6 hr
Max. Min.
20 17:56 S 13 G 26 10.00 A Few Clouds FEW120 109 42.1 10% 104 29.86 1008.3
20 16:56 SE 12 G 20 10.00 A Few Clouds FEW110 109 42.1 111 99 10% 104 29.88 1008.6
20 15:56 SE 12 G 20 10.00 A Few Clouds FEW110 109 42.1 10% 104 29.89 1009.2
20 14:56 S 10 G 18 10.00 A Few Clouds FEW110 109.9 45 11% 105 29.92 1010.1
20 12:56 E 10 G 17 10.00 Fair CLR 107.1 41 11% 102 29.96 1011.4
20 11:56 Calm 10.00 Fair CLR 102.9 44.1 13% 99 29.98 1012.1
20 09:56 Calm 10.00 Fair CLR 96.1 45 17% 92 30 1013.0
20 08:56 SW 3 10.00 Fair CLR 91 44.1 20% 87 30.01 1013.4
20 07:56 Calm 10.00 Fair CLR 84 44.1 25% 82 30.01 1013.5
20 06:56 W 3 10.00 Fair CLR 80.1 43 27% 79 30 1013.0
20 05:56 Calm 10.00 Fair CLR 75 43 32% 77 29.98 1012.6
20 03:56 SW 7 10.00 Fair CLR 80.1 44.1 28% 79 29.97 1011.9
20 02:56 S 8 10.00 Fair CLR 82 42.1 24% 80 29.95 1011.4
20 01:56 S 6 10.00 Fair CLR 84 44.1 25% 82 29.96 1011.6
20 00:56 S 10 10.00 Fair CLR 88 43 21% 85 29.96 1011.4
19 23:56 S 15 10.00 Fair CLR 90 39.9 17% 86 29.95 1011.2
19 22:56 S 13 10.00 Fair CLR 91.9 39.9 108 91.9 16% 88 29.95 1011.1
19 21:56 S 13 10.00 Fair CLR 93.9 41 16% 90 29.94 1011.0
19 20:56 S 12 10.00 Fair CLR 97 43 16% 93 29.93 1010.6
19 19:56 SW 16 10.00 Fair CLR 100.9 43 14% 97 29.91 1009.8
19 18:56 S 18 G 29 10.00 Fair CLR 105.1 39.9 11% 100 29.89 1009.3
19 17:56 S 15 G 26 10.00 Fair CLR 106 39 10% 101 29.88 1008.9
19 14:56 SW 13 G 21 10.00 Fair CLR 109 45 12% 105 29.94 1010.6
19 13:56 S 13 G 20 10.00 Fair CLR 107.1 46.9 13% 103 29.95 1011.2
19 12:56 Calm 10.00 Fair CLR 105.1 46.9 14% 101 29.97 1011.9
19 11:56 W 5 10.00 Fair CLR 102.9 45 14% 99 30 1012.7
19 09:56 Calm 10.00 Fair CLR 96.1 46.9 19% 92 30.02 1013.7
19 08:56 SW 5 10.00 Fair CLR 91.9 44.1 19% 88 30.03 1013.9
19 07:56 SW 7 10.00 Fair CLR 88 45 22% 85 30.02 1013.9
19 05:56 SW 6 10.00 Fair CLR 81 43 26% 80 29.99 1012.8
19 04:56 SW 8 10.00 Fair CLR 82.9 43 91 82 24% 81 29.98 1012.3
19 02:56 SW 6 10.00 Fair CLR 84 43 24% 81 29.96 1011.7
19 01:56 S 10 10.00 Fair CLR 89.1 42.1 19% 85 29.96 1011.6
19 00:56 S 12 10.00 Fair CLR 89.1 43 20% 85 29.97 1011.9
18 23:56 S 7 10.00 Fair CLR 90 43 19% 86 29.97 1011.9
18 22:56 S 8 10.00 Fair CLR 90 42.1 108 90 19% 86 29.97 1011.9
18 20:56 SW 8 10.00 A Few Clouds FEW250 97 44.1 16% 93 29.95 1011.2
18 19:56 SW 14 10.00 A Few Clouds FEW110 FEW250 100 46 16% 96 29.92 1010.3
18 18:56 SW 17 G 25 10.00 Partly Cloudy SCT110 SCT250 104 46 14% 100 29.91 1009.7
18 17:56 SW 20 G 32 10.00 Partly Cloudy SCT110 SCT250 107.1 46 13% 103 29.88 1008.9
18 16:56 S 16 G 28 10.00 Partly Cloudy FEW080 FEW160 SCT250 108 46 109 98.1 12% 104 29.88 1008.8
18 15:56 S 12 G 23 10.00 Partly Cloudy FEW080 FEW160 SCT250 107.1 46.9 13% 103 29.9 1009.3
18 14:56 Calm 10.00 Partly Cloudy FEW080 FEW160 SCT250 106 48.9 15% 103 29.93 1010.3
18 13:56 S 12 G 21 10.00 Partly Cloudy FEW080 FEW180 SCT250 107.1 48.9 14% 104 29.94 1010.7
18 12:56 Vrbl 3 10.00 Partly Cloudy FEW080 FEW180 SCT250 104 46.9 15% 100 29.96 1011.5
18 11:56 Calm 9.00 A Few Clouds FEW180 FEW250 100.9 46 15% 97 29.98 1012.0
18 10:56 Vrbl 3 7.00 A Few Clouds FEW250 98.1 45 99 84 16% 94 29.99 1012.4
18 09:56 S 5 10.00 Partly Cloudy FEW200 SCT250 95 46 19% 91 29.99 1012.5
18 08:56 S 7 10.00 Partly Cloudy SCT200 SCT250 91 45 20% 87 29.99 1012.5
18 07:56 S 10 10.00 Partly Cloudy SCT200 SCT250 89.1 46 23% 86 29.98 1012.4
18 06:56 S 7 10.00 Partly Cloudy SCT200 SCT250 86 48 27% 83 29.96 1011.6
18 05:56 S 12 10.00 Mostly Cloudy BKN180 84.9 46 26% 82 29.94 1011.0
18 04:56 SW 8 10.00 Partly Cloudy SCT180 84.9 43 93 84.9 23% 82 29.93 1010.4
18 03:56 S 13 10.00 Fair CLR 87.1 44.1 22% 84 29.91 1009.7
18 02:56 SW 7 10.00 Fair CLR 87.1 43 21% 84 29.91 1009.7
18 01:56 S 13 10.00 Fair CLR 89.1 41 19% 85 29.9 1009.5
18 00:56 S 13 10.00 Fair CLR 91 42.1 18% 87 29.9 1009.4
17 22:56 S 9 10.00 Fair CLR 93 39.9 108 91.9 16% 89 29.91 1009.9
17 21:56 SW 10 10.00 A Few Clouds FEW160 93.9 39 15% 90 29.91 1009.7
17 20:56 SW 9 10.00 A Few Clouds FEW160 96.1 39.9 14% 92 29.9 1009.5
17 19:56 W 9 10.00 A Few Clouds FEW100 FEW190 98.1 42.1 15% 94 29.88 1009.0
17 18:56 W 13 G 22 10.00 A Few Clouds FEW100 FEW190 104 42.1 12% 99 29.85 1008.1
Date Time (pdt) Wind (mph) Vis. (mi.) Weather Sky Cond. Air Dwpt Max. Min. Relative Humidity Wind Chill (°F) Heat Index (°F) altimeter (in) sea level (mb) 1 hr 3 hr 6 hr
6 hour
Temperature (ºF) Pressure Precipitation (in)